Time,TemperatureF,DewpointF,PressureIn,WindDirection,WindDirectionDegrees,WindSpeedMPH,WindSpeedGustMPH,Humidity,HourlyPrecipIn,Conditions,Clouds,dailyrainin,SoftwareType,DateUTC
2013-04-10 00:02:00,32.0,30.0,29.80,SSE,150,0.0,1.0,94,0.00,,,-99.99,,2013-04-10 06:02:00,
2013-04-10 00:12:00,32.0,30.0,29.80,SSE,150,0.0,1.0,94,0.00,,,-99.99,,2013-04-10 06:12:00,
2013-04-10 00:22:00,32.0,30.0,29.80,SSE,150,0.0,1.0,94,0.00,,,-99.99,,2013-04-10 06:22:00,
2013-04-10 00:32:00,32.0,30.0,29.81,SSE,150,0.0,0.0,94,0.00,,,-99.99,,2013-04-10 06:32:00,
2013-04-10 00:42:00,32.0,30.0,29.81,SSE,150,0.0,0.0,94,0.00,,,-99.99,,2013-04-10 06:42:00,
2013-04-10 00:52:00,32.0,30.0,29.81,SSE,150,0.0,5.0,94,0.00,,,-99.99,,2013-04-10 06:52:00,
2013-04-10 01:02:00,31.0,29.0,29.81,SSE,150,4.0,5.0,93,0.00,,,-99.99,,2013-04-10 07:02:00,
2013-04-10 01:11:00,31.0,29.0,29.81,SSE,150,4.0,5.0,93,0.00,,,-99.99,,2013-04-10 07:11:00,
2013-04-10 01:22:00,31.0,29.0,29.81,SSE,150,2.0,2.0,93,0.00,,,-99.99,,2013-04-10 07:22:00,
2013-04-10 01:32:00,31.0,29.0,29.81,SSE,150,0.0,7.0,91,0.00,,,-99.99,,2013-04-10 07:32:00,
2013-04-10 01:42:00,31.0,29.0,29.81,SSE,150,0.0,7.0,91,0.00,,,-99.99,,2013-04-10 07:42:00,
2013-04-10 01:52:00,32.0,30.0,29.81,SSE,150,6.0,6.0,91,0.00,,,-99.99,,2013-04-10 07:52:00,
2013-04-10 02:01:00,31.0,28.0,29.81,SSE,150,4.0,9.0,90,0.00,,,-99.99,,2013-04-10 08:01:00,
2013-04-10 02:11:00,31.0,28.0,29.81,SSE,150,4.0,9.0,90,0.00,,,-99.99,,2013-04-10 08:11:00,
2013-04-10 02:21:00,31.0,28.0,29.81,SSE,150,6.0,9.0,90,0.00,,,-99.99,,2013-04-10 08:21:00,
2013-04-10 02:31:00,31.0,28.0,29.81,SSE,150,2.0,10.0,89,0.00,,,-99.99,,2013-04-10 08:31:00,
2013-04-10 02:42:00,31.0,28.0,29.81,SSE,150,2.0,10.0,89,0.00,,,-99.99,,2013-04-10 08:42:00,
2013-04-10 02:51:00,30.0,27.0,29.81,SSE,150,8.0,10.0,89,0.00,,,-99.99,,2013-04-10 08:51:00,
2013-04-10 03:02:00,30.0,27.0,29.80,SSE,150,7.0,7.0,88,0.00,,,-99.99,,2013-04-10 09:02:00,
2013-04-10 03:12:00,30.0,27.0,29.81,SSE,150,7.0,10.0,89,0.00,,,-99.99,,2013-04-10 09:12:00,
2013-04-10 03:21:00,30.0,27.0,29.81,SSE,150,7.0,10.0,89,0.00,,,-99.99,,2013-04-10 09:21:00,
2013-04-10 03:32:00,30.0,27.0,29.81,SSE,150,6.0,10.0,89,0.00,,,-99.99,,2013-04-10 09:32:00,
2013-04-10 03:42:00,30.0,27.0,29.81,SSE,150,6.0,10.0,89,0.00,,,-99.99,,2013-04-10 09:42:00,
2013-04-10 03:52:00,29.0,26.0,29.82,SSE,150,5.0,13.0,87,0.00,,,-99.99,,2013-04-10 09:52:00,
2013-04-10 04:02:00,29.0,26.0,29.82,SSE,150,9.0,9.0,88,0.00,,,-99.99,,2013-04-10 10:02:00,
2013-04-10 04:12:00,29.0,26.0,29.82,SSE,150,8.0,12.0,89,0.00,,,-99.99,,2013-04-10 10:12:00,
2013-04-10 04:23:00,29.0,26.0,29.82,SSE,150,8.0,12.0,89,0.00,,,-99.99,,2013-04-10 10:23:00,
2013-04-10 04:33:00,29.0,26.0,29.83,SSE,150,6.0,11.0,89,0.00,,,-99.99,,2013-04-10 10:33:00,
2013-04-10 04:42:00,29.0,26.0,29.83,SSE,150,6.0,11.0,89,0.00,,,-99.99,,2013-04-10 10:42:00,
2013-04-10 04:52:00,28.0,25.0,29.83,SSE,150,7.0,15.0,89,0.00,,,-99.99,,2013-04-10 10:52:00,
2013-04-10 05:02:00,28.0,25.0,29.83,SSE,150,5.0,9.0,89,0.00,,,-99.99,,2013-04-10 11:02:00,
2013-04-10 05:12:00,28.0,25.0,29.83,SSE,150,5.0,9.0,89,0.00,,,-99.99,,2013-04-10 11:12:00,
2013-04-10 05:22:00,28.0,25.0,29.83,SSE,150,4.0,7.0,89,0.00,,,-99.99,,2013-04-10 11:22:00,
2013-04-10 05:32:00,28.0,25.0,29.84,SSE,150,5.0,8.0,90,0.00,,,-99.99,,2013-04-10 11:32:00,
2013-04-10 05:42:00,28.0,25.0,29.84,SSE,150,5.0,8.0,90,0.00,,,-99.99,,2013-04-10 11:42:00,
2013-04-10 05:52:00,28.0,25.0,29.84,SSE,150,2.0,8.0,90,0.00,,,-99.99,,2013-04-10 11:52:00,
2013-04-10 06:02:00,28.0,25.0,29.85,SSE,150,5.0,10.0,90,0.00,,,-99.99,,2013-04-10 12:02:00,
2013-04-10 06:12:00,28.0,25.0,29.85,SSE,150,5.0,10.0,90,0.00,,,-99.99,,2013-04-10 12:12:00,
2013-04-10 06:21:00,27.0,24.0,29.85,SSE,150,4.0,8.0,90,0.00,,,-99.99,,2013-04-10 12:21:00,
2013-04-10 06:32:00,27.0,24.0,29.85,SSE,150,1.0,8.0,90,0.00,,,-99.99,,2013-04-10 12:32:00,
2013-04-10 06:42:00,27.0,24.0,29.85,SSE,150,1.0,8.0,90,0.00,,,-99.99,,2013-04-10 12:42:00,
2013-04-10 06:51:00,27.0,25.0,29.86,SSE,150,5.0,8.0,91,0.00,,,-99.99,,2013-04-10 12:51:00,
2013-04-10 07:01:00,27.0,25.0,29.87,SSE,150,4.0,9.0,91,0.00,,,-99.99,,2013-04-10 13:01:00,
2013-04-10 07:12:00,27.0,25.0,29.87,SSE,150,4.0,9.0,91,0.00,,,-99.99,,2013-04-10 13:12:00,
2013-04-10 07:22:00,27.0,24.0,29.87,SSE,150,2.0,6.0,90,0.00,,,-99.99,,2013-04-10 13:22:00,
2013-04-10 07:32:00,27.0,24.0,29.88,SSE,150,2.0,8.0,90,0.00,,,-99.99,,2013-04-10 13:32:00,
2013-04-10 07:42:00,27.0,24.0,29.88,SSE,150,2.0,8.0,90,0.00,,,-99.99,,2013-04-10 13:42:00,
2013-04-10 07:52:00,27.0,24.0,29.89,SSE,150,7.0,7.0,90,0.00,,,-99.99,,2013-04-10 13:52:00,
2013-04-10 08:01:00,27.0,24.0,29.90,SSE,150,5.0,10.0,90,0.00,,,-99.99,,2013-04-10 14:01:00,
2013-04-10 08:12:00,27.0,24.0,29.90,SSE,150,5.0,10.0,90,0.00,,,-99.99,,2013-04-10 14:12:00,
2013-04-10 08:21:00,27.0,24.0,29.91,SSE,150,6.0,12.0,90,0.00,,,-99.99,,2013-04-10 14:21:00,
2013-04-10 08:32:00,27.0,24.0,29.91,SSE,150,6.0,9.0,89,0.00,,,-99.99,,2013-04-10 14:32:00,
2013-04-10 08:42:00,27.0,24.0,29.91,SSE,150,6.0,9.0,89,0.00,,,-99.99,,2013-04-10 14:42:00,
2013-04-10 08:51:00,27.0,24.0,29.91,SSE,150,0.0,9.0,88,0.00,,,-99.99,,2013-04-10 14:51:00,
2013-04-10 09:02:00,27.0,24.0,29.92,SSE,150,0.0,4.0,87,0.00,,,-99.99,,2013-04-10 15:02:00,
2013-04-10 09:11:00,27.0,24.0,29.92,SSE,150,0.0,4.0,87,0.00,,,-99.99,,2013-04-10 15:11:00,
2013-04-10 09:22:00,28.0,24.0,29.92,SSE,150,4.0,7.0,85,0.00,,,-99.99,,2013-04-10 15:22:00,
2013-04-10 09:32:00,28.0,24.0,29.93,SSE,150,4.0,6.0,85,0.00,,,-99.99,,2013-04-10 15:32:00,
2013-04-10 09:42:00,28.0,24.0,29.93,SSE,150,4.0,6.0,85,0.00,,,-99.99,,2013-04-10 15:42:00,
2013-04-10 09:52:00,28.0,24.0,29.94,SSE,150,5.0,9.0,85,0.00,,,-99.99,,2013-04-10 15:52:00,
2013-04-10 10:02:00,27.0,23.0,29.94,SSE,150,5.0,10.0,85,0.00,,,-99.99,,2013-04-10 16:02:00,
2013-04-10 10:12:00,27.0,23.0,29.94,SSE,150,5.0,10.0,85,0.00,,,-99.99,,2013-04-10 16:12:00,
2013-04-10 10:22:00,27.0,24.0,29.95,SSE,150,6.0,9.0,87,0.00,,,-99.99,,2013-04-10 16:22:00,
2013-04-10 10:32:00,27.0,23.0,29.96,SSE,150,7.0,9.0,86,0.00,,,-99.99,,2013-04-10 16:32:00,
2013-04-10 10:42:00,27.0,23.0,29.96,SSE,150,7.0,9.0,86,0.00,,,-99.99,,2013-04-10 16:42:00,
2013-04-10 10:53:00,27.0,23.0,29.96,SSE,150,4.0,12.0,85,0.00,,,-99.99,,2013-04-10 16:53:00,
2013-04-10 11:02:00,28.0,24.0,29.97,SSE,150,7.0,10.0,84,0.00,,,-99.99,,2013-04-10 17:02:00,
2013-04-10 11:12:00,29.0,25.0,29.97,SSE,150,4.0,9.0,83,0.00,,,-99.99,,2013-04-10 17:12:00,
2013-04-10 11:22:00,29.0,25.0,29.97,SSE,150,4.0,9.0,83,0.00,,,-99.99,,2013-04-10 17:22:00,
2013-04-10 11:32:00,29.0,25.0,29.97,SSE,150,7.0,9.0,83,0.00,,,-99.99,,2013-04-10 17:32:00,
2013-04-10 11:42:00,29.0,25.0,29.97,SSE,150,7.0,9.0,83,0.00,,,-99.99,,2013-04-10 17:42:00,
2013-04-10 11:52:00,29.0,24.0,29.97,SSE,156,4.0,10.0,82,0.00,,,-99.99,,2013-04-10 17:52:00,
2013-04-10 12:02:00,29.0,24.0,29.97,SSE,156,7.0,10.0,81,0.00,,,-99.99,,2013-04-10 18:02:00,
2013-04-10 12:12:00,29.0,24.0,29.97,SSE,156,7.0,10.0,81,0.00,,,-99.99,,2013-04-10 18:12:00,
2013-04-10 12:22:00,30.0,24.0,29.96,South,178,8.0,11.0,79,0.00,,,-99.99,,2013-04-10 18:22:00,
2013-04-10 12:32:00,30.0,24.0,29.97,SW,217,5.0,10.0,77,0.17,,,-99.99,,2013-04-10 18:32:00,
2013-04-10 12:42:00,30.0,24.0,29.97,SW,217,5.0,10.0,77,0.17,,,-99.99,,2013-04-10 18:42:00,
2013-04-10 12:52:00,31.0,25.0,29.96,SSW,192,3.0,8.0,79,0.00,,,-99.99,,2013-04-10 18:52:00,
2013-04-10 13:02:00,31.0,24.0,29.96,South,178,10.0,11.0,76,0.00,,,-99.99,,2013-04-10 19:02:00,
2013-04-10 13:12:00,31.0,24.0,29.96,South,178,10.0,11.0,76,0.00,,,-99.99,,2013-04-10 19:12:00,
2013-04-10 13:22:00,31.0,24.0,29.96,SSE,167,6.0,11.0,74,0.00,,,-99.99,,2013-04-10 19:22:00,
2013-04-10 13:32:00,31.0,24.0,29.96,SSW,203,5.0,12.0,75,0.00,,,-99.99,,2013-04-10 19:32:00,
2013-04-10 13:42:00,31.0,24.0,29.96,SSW,203,5.0,12.0,75,0.00,,,-99.99,,2013-04-10 19:42:00,
2013-04-10 13:53:00,32.0,25.0,29.96,ESE,113,5.0,9.0,76,0.00,,,-99.99,,2013-04-10 19:53:00,
2013-04-10 14:02:00,32.0,24.0,29.96,SSW,192,9.0,10.0,73,0.00,,,-99.99,,2013-04-10 20:02:00,
2013-04-10 14:12:00,32.0,26.0,29.96,SSE,161,6.0,11.0,77,0.00,,,-99.99,,2013-04-10 20:12:00,
2013-04-10 14:21:00,32.0,26.0,29.96,SSE,161,6.0,11.0,77,0.00,,,-99.99,,2013-04-10 20:21:00,
2013-04-10 14:32:00,32.0,24.0,29.96,WSW,237,4.0,9.0,72,0.00,,,-99.99,,2013-04-10 20:32:00,
2013-04-10 14:42:00,32.0,24.0,29.97,SSE,165,5.0,11.0,73,0.00,,,-99.99,,2013-04-10 20:42:00,
2013-04-10 14:52:00,32.0,24.0,29.97,SSE,165,5.0,11.0,73,0.00,,,-99.99,,2013-04-10 20:52:00,
2013-04-10 15:02:00,31.0,24.0,29.96,WSW,244,1.0,8.0,74,0.00,,,-99.99,,2013-04-10 21:02:00,
2013-04-10 15:12:00,31.0,24.0,29.96,WSW,244,1.0,8.0,74,0.00,,,-99.99,,2013-04-10 21:12:00,
2013-04-10 15:22:00,32.0,25.0,29.96,SW,234,4.0,5.0,75,0.00,,,-99.99,,2013-04-10 21:22:00,
2013-04-10 15:32:00,32.0,26.0,29.96,WNW,300,0.0,7.0,78,0.00,,,-99.99,,2013-04-10 21:32:00,
2013-04-10 15:42:00,32.0,26.0,29.96,WNW,300,0.0,7.0,78,0.00,,,-99.99,,2013-04-10 21:42:00,
2013-04-10 15:53:00,32.0,25.0,29.95,WSW,254,5.0,7.0,75,0.00,,,-99.99,,2013-04-10 21:53:00,
2013-04-10 16:02:00,32.0,26.0,29.95,NW,312,2.0,5.0,77,0.00,,,-99.99,,2013-04-10 22:02:00,
2013-04-10 16:12:00,32.0,26.0,29.95,NW,312,2.0,5.0,77,0.00,,,-99.99,,2013-04-10 22:12:00,
2013-04-10 16:22:00,33.0,27.0,29.95,WNW,298,3.0,4.0,77,0.00,,,-99.99,,2013-04-10 22:22:00,
2013-04-10 16:32:00,33.0,26.0,29.94,WSW,252,0.0,3.0,74,0.00,,,-99.99,,2013-04-10 22:32:00,
2013-04-10 16:42:00,33.0,26.0,29.94,WSW,252,0.0,3.0,74,0.00,,,-99.99,,2013-04-10 22:42:00,
2013-04-10 16:52:00,33.0,26.0,29.95,NNE,26,0.0,3.0,75,0.00,,,-99.99,,2013-04-10 22:52:00,
2013-04-10 17:02:00,34.0,26.0,29.95,WSW,246,7.0,8.0,72,0.00,,,-99.99,,2013-04-10 23:02:00,
2013-04-10 17:12:00,34.0,26.0,29.95,WSW,246,7.0,8.0,72,0.00,,,-99.99,,2013-04-10 23:12:00,
2013-04-10 17:22:00,33.0,25.0,29.95,SW,231,6.0,8.0,73,0.00,,,-99.99,,2013-04-10 23:22:00,
2013-04-10 17:32:00,33.0,26.0,29.95,SW,223,0.0,5.0,74,0.00,,,-99.99,,2013-04-10 23:32:00,
2013-04-10 17:42:00,33.0,26.0,29.95,SW,223,0.0,5.0,74,0.00,,,-99.99,,2013-04-10 23:42:00,
2013-04-10 17:52:00,33.0,26.0,29.95,ESE,122,4.0,6.0,74,0.00,,,-99.99,,2013-04-10 23:52:00,
2013-04-10 18:01:00,33.0,27.0,29.95,ENE,70,2.0,7.0,77,0.00,,,-99.99,,2013-04-11 00:01:00,
2013-04-10 18:11:00,33.0,27.0,29.95,ENE,70,2.0,7.0,77,0.00,,,-99.99,,2013-04-11 00:11:00,
2013-04-10 18:22:00,32.0,25.0,29.95,East,92,4.0,8.0,76,0.00,,,-99.99,,2013-04-11 00:22:00,
2013-04-10 18:32:00,33.0,26.0,29.96,ESE,120,1.0,6.0,75,0.00,,,-99.99,,2013-04-11 00:32:00,
2013-04-10 18:42:00,33.0,26.0,29.96,ESE,120,1.0,6.0,75,0.00,,,-99.99,,2013-04-11 00:42:00,
2013-04-10 18:52:00,33.0,25.0,29.96,South,180,0.0,5.0,73,0.00,,,-99.99,,2013-04-11 00:52:00,
2013-04-10 19:02:00,33.0,26.0,29.96,SE,146,2.0,6.0,76,0.00,,,-99.99,,2013-04-11 01:02:00,
2013-04-10 19:12:00,33.0,26.0,29.96,SE,146,2.0,6.0,76,0.00,,,-99.99,,2013-04-11 01:12:00,
2013-04-10 19:21:00,32.0,26.0,29.96,ENE,77,3.0,5.0,78,0.00,,,-99.99,,2013-04-11 01:21:00,
2013-04-10 19:32:00,32.0,27.0,29.96,ESE,107,4.0,5.0,80,0.00,,,-99.99,,2013-04-11 01:32:00,
2013-04-10 19:42:00,32.0,27.0,29.96,ESE,107,4.0,5.0,80,0.00,,,-99.99,,2013-04-11 01:42:00,
2013-04-10 19:52:00,32.0,27.0,29.97,ESE,103,5.0,7.0,80,0.00,,,-99.99,,2013-04-11 01:52:00,
2013-04-10 20:02:00,32.0,27.0,29.98,East,98,2.0,5.0,80,0.00,,,-99.99,,2013-04-11 02:02:00,
2013-04-10 20:12:00,31.0,26.0,29.98,East,98,0.0,4.0,81,0.00,,,-99.99,,2013-04-11 02:12:00,
2013-04-10 20:22:00,31.0,26.0,29.98,East,98,0.0,4.0,81,0.00,,,-99.99,,2013-04-11 02:22:00,
2013-04-10 20:31:00,31.0,26.0,29.97,East,98,1.0,4.0,82,0.00,,,-99.99,,2013-04-11 02:31:00,
2013-04-10 20:42:00,31.0,26.0,29.97,East,98,1.0,4.0,82,0.00,,,-99.99,,2013-04-11 02:42:00,
2013-04-10 20:52:00,31.0,26.0,29.98,NNW,344,3.0,4.0,83,0.00,,,-99.99,,2013-04-11 02:52:00,
2013-04-10 21:02:00,31.0,27.0,29.99,North,5,3.0,5.0,84,0.00,,,-99.99,,2013-04-11 03:02:00,
2013-04-10 21:12:00,31.0,27.0,29.99,North,5,3.0,5.0,84,0.00,,,-99.99,,2013-04-11 03:12:00,
2013-04-10 21:21:00,31.0,27.0,30.00,NNW,348,3.0,5.0,84,0.00,,,-99.99,,2013-04-11 03:21:00,
2013-04-10 21:33:00,31.0,27.0,30.00,North,11,2.0,4.0,85,0.00,,,-99.99,,2013-04-11 03:33:00,
2013-04-10 21:42:00,31.0,27.0,30.01,North,350,3.0,4.0,86,0.00,,,-99.99,,2013-04-11 03:42:00,
2013-04-10 21:53:00,31.0,27.0,30.01,North,350,3.0,4.0,86,0.00,,,-99.99,,2013-04-11 03:53:00,
2013-04-10 22:03:00,31.0,27.0,30.01,North,360,2.0,5.0,85,0.00,,,-99.99,,2013-04-11 04:03:00,
2013-04-10 22:12:00,30.0,26.0,30.01,NNE,15,0.0,3.0,85,0.00,,,-99.99,,2013-04-11 04:12:00,
2013-04-10 22:22:00,30.0,26.0,30.01,NNE,15,0.0,3.0,85,0.00,,,-99.99,,2013-04-11 04:22:00,
2013-04-10 22:33:00,30.0,26.0,30.01,NNE,15,0.0,0.0,86,0.00,,,-99.99,,2013-04-11 04:33:00,
2013-04-10 22:42:00,30.0,26.0,30.01,NNE,15,0.0,0.0,86,0.00,,,-99.99,,2013-04-11 04:42:00,
2013-04-10 22:52:00,29.0,25.0,30.01,NNE,15,0.0,1.0,86,0.00,,,-99.99,,2013-04-11 04:52:00,
2013-04-10 23:02:00,28.0,25.0,30.01,NNE,15,0.0,0.0,88,0.00,,,-99.99,,2013-04-11 05:02:00,
2013-04-10 23:12:00,28.0,25.0,30.01,NNE,15,0.0,0.0,88,0.00,,,-99.99,,2013-04-11 05:12:00,
2013-04-10 23:22:00,28.0,25.0,30.01,NNE,15,0.0,0.0,88,0.00,,,-99.99,,2013-04-11 05:22:00,
2013-04-10 23:32:00,27.0,24.0,30.01,NNE,12,2.0,4.0,89,0.00,,,-99.99,,2013-04-11 05:32:00,
2013-04-10 23:42:00,27.0,24.0,30.01,NNE,12,2.0,4.0,89,0.00,,,-99.99,,2013-04-11 05:42:00,
2013-04-10 23:52:00,27.0,24.0,30.01,North,355,0.0,4.0,90,0.00,,,-99.99,,2013-04-11 05:52:00,